Regional Weather Roundup
Issued by NWS

Home | Current Version | Previous Version | Graphics & Text | Print | Product List | Glossary On
Versions: 1 2 3 4 5 6 7 8 9 10 11 12 13 14 15 16 17 18 19 20 21 22 23 24 25 26 27 28 29 30 31 32 33 34 35 36 37 38 39 40 41 42 43 44 45 46 47 48 49 50
000
ASUS43 KDMX 060207
RWRIA

WEATHER ROUNDUP FOR IOWA
NATIONAL WEATHER SERVICE DES MOINES IA
800 PM CST THU MAR 05 2015

NOTE: "FAIR" INDICATES FEW OR NO CLOUDS BELOW 12,000 FEET WITH NO
SIGNIFICANT WEATHER AND/OR OBSTRUCTIONS TO VISIBILITY.

* - THESE STATIONS ARE NOT NWS STATIONS...THUS NOT UNDER NWS
QUALITY CONTROL.  THEY ALSO DO NOT REPORT WEATHER SUCH
AS PRECIPITATION OR FOG.

IAZ001>003-012>014-020>022-031>034-043>046-060300-
   NORTHWEST IOWA

CITY           SKY/WX    TMP DP  RH WIND       PRES   REMARKS
CARROLL *      CLEAR     14   5  67 S6        30.40F WCI   5
CHEROKEE *     CLEAR     18   7  62 S8        30.34F WCI   7
DENISON *      CLEAR     19   5  53 SE10      30.36F WCI   8
LE MARS *      CLEAR     23   7  50 SE13      30.31F WCI  11
ORANGE CITY *  CLEAR     21   7  53 S9        30.29F WCI  11
SHELDON *      CLEAR     18   7  62 S15       30.28F WCI   3
SIOUX CITY     CLEAR     24   7  48 SE12      30.32F WCI  13
SPENCER        CLEAR     16   5  62 S13       30.33F WCI   2
STORM LAKE *   CLEAR     14   5  67 S13       30.35F WCI   0
$$

IAZ055>058-069>071-079>083-090>094-060300-
   SOUTHWEST IOWA

CITY           SKY/WX    TMP DP  RH WIND       PRES   REMARKS
ATLANTIC *     CLEAR     21   5  49 S6        30.41F WCI  14
AUDUBON *      CLEAR     16   7  67 CALM      30.40F
CLARINDA *     CLEAR     19   5  53 S5        30.46S WCI  13
COUNCIL BLFS * CLEAR     23   7  50 S9        30.37F WCI  13
CRESTON *      CLEAR     18   3  53 S8        30.44S WCI   7
HARLAN  *      CLEAR     19   7  58 S7        30.43F WCI  10
LAMONI         CLEAR     20   4  50 SE7       30.46S WCI  11
RED OAK *      CLEAR     21   5  49 S7        30.43F WCI  13
SHENANDOAH *   CLEAR     21   5  49 SE9       30.43F WCI  11
$$

IAZ047>049-059>061-072>074-084-060300-
   CENTRAL IOWA

CITY           SKY/WX    TMP DP  RH WIND       PRES   REMARKS
AMES           CLEAR     10   1  67 SE6       30.46F WCI   0
ANKENY *       CLEAR     14   3  62 SE5       30.48S WCI   6
CHARITON *     CLEAR     16   3  57 SE7       30.48S WCI   6
DES MOINES     CLEAR     20   2  45 SE6       30.47S WCI  12
GRINNELL*      PTCLDY     9   1  72 SE5       30.48F WCI   0
KNOXVILLE *    CLEAR     14   3  62 E5        30.47S WCI   6
MARSHALLTOWN   PTCLDY     5  -3  69 SE7       30.47S WCI  -7
PELLA *        CLEAR     12   5  73 SE6       30.51S WCI   3
PERRY *          N/A     16   7  67 SE7       30.45S WCI   6
$$

IAZ004>006-015-016-023>025-035-036-060300-
   NORTH CENTRAL IOWA

CITY           SKY/WX    TMP DP  RH WIND       PRES   REMARKS
ALGONA *       CLEAR     14  14 100 S14       30.39F WCI  -1
CLARION *      CLEAR     10   5  79 SE10      30.42F WCI  -3
ESTHERVILLE    CLEAR     14   5  67 S14       30.33F WCI  -1
FORT DODGE *   CLEAR     16   3  57 S7        30.42F WCI   6
MASON CITY     PTCLDY     3  -3  76 S9        30.43F WCI -12
FOREST CITY *  CLEAR      7   0  72 SE8       30.40F WCI  -6
IOWA FALLS *     N/A      5  -2  72 SE7       30.45F WCI  -7
$$

IAZ007>011-017>019-026>030-037>042-050>054-066-060300-
   NORTHEAST IOWA

CITY           SKY/WX    TMP DP  RH WIND       PRES   REMARKS
CEDAR RAPIDS   PTCLDY     3  -3  76 CALM      30.51F
CHARLES CITY * CLEAR      1  -6  71 S9        30.46S WCI -14
CLINTON *      PTCLDY     1  -8  66 W3        30.56F
DECORAH *      CLEAR      3  -6  66 S5        30.44F WCI  -6
DUBUQUE        PTCLDY     1  -7  68 SW6       30.49F WCI -10
MONTICELLO *   CLEAR      1  -6  71 CALM      30.52F
OELWEIN *      CLEAR      0  -8  71 S8        30.48F WCI -15
WATERLOO       PTCLDY     4  -3  73 S5        30.49F WCI  -5
$$

IAZ064-065-067-068-078-060300-
   EAST CENTRAL IOWA

CITY           SKY/WX    TMP DP  RH WIND       PRES   REMARKS
DAVENPORT      PTCLDY     6  -3  66 CALM      30.55S
IOWA CITY      PTCLDY     7  -1  70 CALM      30.56S
MT. PLEASANT * PTCLDY     7   0  72 E6        30.55F WCI  -3
MUSCATINE *    CLEAR      9   1  72 CALM      30.58S
QUAD CITIES    PTCLDY     6  -3  66 SW3       30.56S
$$

IAZ062-063-075>077-085>089-095>099-060300-
   SOUTHEAST IOWA

CITY           SKY/WX    TMP DP  RH WIND       PRES   REMARKS
BURLINGTON     PTCLDY     7   0  73 E3        30.55F
FAIRFIELD *    CLEAR      9   0  66 SE5       30.54S WCI   0
FORT MADISON * CLEAR     10   0  61 S5        30.56S WCI   2
KEOKUK *       CLEAR     10   3  72 E5        30.55F WCI   2
OSKALOOSA *      N/A     12   3  67 SE6       30.51F WCI   3
CENTERVILLE *  CLEAR     14   5  67 SE6       30.50F WCI   5
OTTUMWA        CLEAR     12   3  67 SE8       30.51F WCI   0
WASHINGTON *   CLEAR     10   5  79 E5        30.54S WCI   2
$$

ABBREVIATIONS USED IN REMARKS
   TC - TEMPERATURES IN CELSIUS
  WCI - WIND CHILL INDEX
   HX - HEAT INDEX
  VSB - VISIBILITY
$$




USA.gov is the U.S. government's official web portal to all federal, state and local government web resources and services.